Location: Bacharowice
(49.9333°N, 19.5833°E)
Time: 08:00:44
(UTC+00:00)

Cosmos 1908 Rocket - Pass Details

Date: 02 October 2021
Orbit: 605 x 633 km, 82.5° (Epoch: 27 October)

Event Time Altitude Azimuth Distance (km) Brightness Sun altitude
Rises 17:02:46 0° 198° (SSW) 2,914 7.2 -8.1°
Reaches altitude 10° 17:05:01 10° 202° (SSW) 2,008 6.4 -8.4°
Maximum altitude 17:09:25 61° 282° (WNW) 720 4.3 -9.1°
Drops below altitude 10° 17:13:51 10° 4° (N) 2,011 6.2 -9.9°
Sets 17:16:07 0° 8° (N) 2,918 7.0 -10.2°
